KG6QHS-1 Weather Reports


time (UTC)temp
C
wind
direction
speed
KPH
gust
KPH
rain 1hr
cm
rain 24hr
cm
rain mn
cm
humidity
%
barometer
mb
20260504203216 16 145 4.8 22.5 0.00 0.00 0.00 78 1013.6
20260504202716 16 144 16.1 22.5 0.00 0.00 0.00 77 1013.4
20260504202215 16 129 12.9 35.4 0.00 0.00 0.00 79 1013.4
20260504201715 16 256 12.9 35.4 0.00 0.00 0.00 78 1013.5
20260504201215 16 215 8.0 30.6 0.00 0.00 0.00 78 1013.5
20260504200215 16 231 4.8 22.5 0.00 0.00 0.00 79 1013.4
20260504195716 16 176 8.0 22.5 0.00 0.00 0.00 79 1013.6
20260504195215 16 117 4.8 22.5 0.00 0.00 0.00 78 1013.6
20260504194716 17 153 8.0 22.5 0.00 0.00 0.00 79 1013.7
20260504194215 16 235 4.8 16.1 0.00 0.00 0.00 80 1013.6
20260504192715 16 38 3.2 22.5 0.00 0.00 0.00 80 1013.6
20260504192215 16 330 0.0 22.5 0.00 0.00 0.00 81 1013.6
20260504191716 16 166 8.0 16.1 0.00 0.00 0.00 82 1013.7
20260504191215 16 179 3.2 16.1 0.00 0.00 0.00 82 1013.7
20260504190715 16 221 4.8 16.1 0.00 0.00 0.00 82 1013.8
20260504190215 16 162 4.8 19.3 0.00 0.00 0.00 82 1013.7
20260504185714 16 134 12.9 19.3 0.00 0.00 0.00 81 1013.7
20260504185215 16 234 4.8 16.1 0.00 0.00 0.00 83 1013.6
20260504184715 15 168 3.2 16.1 0.00 0.00 0.00 83 1013.7
20260504184215 15 162 3.2 22.5 0.00 0.00 0.00 83 1013.6
20260504183714 15 122 9.7 22.5 0.00 0.00 0.00 83 1013.7
20260504183214 15 104 8.0 19.3 0.00 0.00 0.00 83 1013.7
20260504182714 15 208 4.8 11.3 0.00 0.00 0.00 83 1013.7
20260504181714 15 111 17.7 19.3 0.00 0.00 0.00 84 1013.6
20260504181215 15 155 3.2 16.1 0.00 0.00 0.00 83 1013.6
20260504180714 15 208 4.8 16.1 0.00 0.00 0.00 85 1013.6
20260504180215 15 115 3.2 16.1 0.00 0.00 0.00 85 1013.5
20260504175714 15 193 9.7 11.3 0.00 0.00 0.00 85 1013.6
20260504175214 15 198 3.2 11.3 0.00 0.00 0.00 86 1013.6
20260504174715 14 192 8.0 11.3 0.00 0.00 0.00 86 1013.6
20260504174214 14 191 4.8 11.3 0.00 0.00 0.00 86 1013.4
20260504173714 14 243 4.8 11.3 0.00 0.00 0.00 87 1013.4
20260504173214 14 153 3.2 11.3 0.00 0.00 0.00 87 1013.3
20260504172714 14 181 9.7 11.3 0.00 0.00 0.00 87 1013.3
20260504172215 13 214 4.8 11.3 0.00 0.00 0.00 88 1013.3
20260504171214 13 153 3.2 22.5 0.00 0.00 0.00 89 1013.1
20260504170714 13 160 4.8 22.5 0.00 0.00 0.00 89 1013.3
20260504170214 13 120 8.0 24.1 0.00 0.00 0.00 89 1013.2
20260504150213 12 165 3.2 19.3 0.00 0.00 0.00 93 1012.6
20260504141211 12 204 8.0 22.5 0.00 0.00 0.00 95 1012.2
20260504140711 12 152 3.2 4.8 0.00 0.00 0.00 95 1012.1
20260504140212 12 327 3.2 16.1 0.00 0.00 0.00 95 1012.1
20260504130710 12 191 0.0 30.6 0.00 0.00 0.00 96 1011.8
20260504120209 11 119 12.9 19.3 0.00 0.00 0.00 97 1011.5
20260504110708 11 131 8.0 38.6 0.00 0.00 0.00 97 1011.1
20260504110208 11 188 4.8 38.6 0.00 0.00 0.00 97 1011.1
20260504100208 11 109 33.8 35.4 0.00 0.00 0.00 96 1011.1
20260504080706 12 233 0.0 22.5 0.00 0.00 0.00 92 1010.2
20260504080206 12 146 20.9 22.5 0.00 0.00 0.00 92 1010.3
20260504070235 13 139 4.8 22.5 0.00 0.00 0.00 86 1009.6
20260504060233 13 296 3.2 3.2 0.00 0.00 0.00 83 1009.0
20260504050734 14 313 0.0 3.2 0.00 0.00 0.00 78 1009.0
20260504050232 15 285 0.0 3.2 0.00 0.00 0.00 78 1009.1
20260504045233 15 138 0.0 0.0 0.00 0.00 0.00 76 1009.0
20260504044733 15 265 0.0 0.0 0.00 0.00 0.00 75 1009.0
20260504044232 15 304 0.0 0.0 0.00 0.00 0.00 74 1008.9
20260504043232 15 315 3.2 3.2 0.00 0.00 0.00 72 1008.8
20260504042732 15 319 0.0 0.0 0.00 0.00 0.00 72 1008.8
20260504042232 15 9 0.0 3.2 0.00 0.00 0.00 71 1008.8
20260504041732 15 339 0.0 4.8 0.00 0.00 0.00 71 1008.9
20260504041232 15 338 3.2 8.0 0.00 0.00 0.00 71 1009.0
20260504040732 15 330 8.0 8.0 0.00 0.00 0.00 72 1008.9
20260504035731 15 14 0.0 3.2 0.00 0.00 0.00 74 1008.8
20260504035232 15 293 0.0 0.0 0.00 0.00 0.00 73 1008.7
20260504034232 16 293 0.0 0.0 0.00 0.00 0.00 70 1008.5
20260504033731 16 293 0.0 3.2 0.00 0.00 0.00 69 1008.5
20260504033231 16 285 0.0 3.2 0.00 0.00 0.00 68 1008.4
20260504032231 17 2 3.2 8.0 0.00 0.00 0.00 66 1008.5
20260504031731 17 345 0.0 8.0 0.00 0.00 0.00 65 1008.5
20260504031231 17 325 3.2 11.3 0.00 0.00 0.00 64 1008.5
20260504030732 17 1 9.7 11.3 0.00 0.00 0.00 63 1008.4
20260504025731 18 17 8.0 14.5 0.00 0.00 0.00 61 1008.4
20260504025231 18 29 0.0 14.5 0.00 0.00 0.00 60 1008.4
20260504024230 18 355 8.0 16.1 0.00 0.00 0.00 59 1008.4
20260504022730 18 23 8.0 16.1 0.00 0.00 0.00 57 1008.5
20260504021730 18 333 4.8 24.1 0.00 0.00 0.00 56 1008.5
20260504020730 18 32 8.0 38.6 0.00 0.00 0.00 56 1008.5
20260504015729 18 3 17.7 32.2 0.00 0.00 0.00 57 1008.5
20260504015230 18 349 12.9 32.2 0.00 0.00 0.00 58 1008.6
20260504014730 18 326 4.8 22.5 0.00 0.00 0.00 62 1008.7
20260504014230 17 324 4.8 22.5 0.00 0.00 0.00 63 1008.8
20260504013730 17 346 8.0 32.2 0.00 0.00 0.00 64 1008.7
20260504013230 17 305 12.9 32.2 0.00 0.00 0.00 64 1008.8
20260504012729 18 333 9.7 24.1 0.00 0.00 0.00 65 1008.6
20260504012229 18 345 8.0 27.4 0.00 0.00 0.00 65 1008.7
20260504011230 18 347 9.7 35.4 0.00 0.00 0.00 65 1008.9
20260504010229 18 345 4.8 35.4 0.00 0.00 0.00 62 1008.9
20260504005729 18 350 20.9 35.4 0.00 0.00 0.00 61 1008.9
20260504005229 18 292 4.8 32.2 0.00 0.00 0.00 60 1009.1
20260504003728 18 63 22.5 30.6 0.00 0.00 0.00 60 1009.0
20260504002729 18 339 20.9 32.2 0.00 0.00 0.00 61 1009.0
20260504002228 18 2 16.1 49.9 0.00 0.00 0.00 61 1009.0
20260504001728 18 29 46.7 49.9 0.00 0.00 0.00 60 1009.0
20260504001229 19 360 38.6 41.8 0.00 0.00 0.00 60 1009.1
20260504000728 19 309 4.8 35.4 0.00 0.00 0.00 62 1009.0
20260503235228 19 302 4.8 43.5 0.00 0.00 0.00 60 1009.1
20260503234227 19 360 30.6 41.8 0.00 0.00 0.00 60 1009.2
20260503233227 19 316 16.1 32.2 0.00 0.00 0.00 59 1009.3
20260503232728 19 328 30.6 41.8 0.00 0.00 0.00 61 1009.4
20260503232228 19 345 29.0 41.8 0.00 0.00 0.00 59 1009.3
20260503231727 19 328 30.6 38.6 0.00 0.00 0.00 59 1009.5
20260503231227 19 314 17.7 38.6 0.00 0.00 0.00 58 1009.5
20260503230727 19 311 22.5 30.6 0.00 0.00 0.00 59 1009.5
20260503230227 20 315 22.5 24.1 0.00 0.00 0.00 59 1009.5
20260503225727 20 32 4.8 27.4 0.00 0.00 0.00 59 1009.5
20260503225227 20 323 4.8 30.6 0.00 0.00 0.00 58 1009.7
20260503224727 20 298 12.9 30.6 0.00 0.00 0.00 58 1009.6
20260503224227 20 275 16.1 46.7 0.00 0.00 0.00 57 1009.7
20260503223226 20 68 30.6 38.6 0.00 0.00 0.00 56 1009.8
20260503222226 21 293 9.7 35.4 0.00 0.00 0.00 53 1009.9
20260503221726 21 8 30.6 35.4 0.00 0.00 0.00 52 1009.9
20260503221226 22 314 16.1 27.4 0.00 0.00 0.00 52 1009.9
20260503220726 22 359 9.7 35.4 0.00 0.00 0.00 54 1009.9
20260503220226 22 39 16.1 35.4 0.00 0.00 0.00 51 1010.0
20260503215225 22 15 20.9 32.2 0.00 0.00 0.00 52 1010.1
20260503214725 22 37 8.0 32.2 0.00 0.00 0.00 52 1010.2
20260503214225 22 359 12.9 30.6 0.00 0.00 0.00 51 1010.1
20260503213726 22 326 8.0 35.4 0.00 0.00 0.00 53 1010.2
20260503213225 22 14 22.5 35.4 0.00 0.00 0.00 52 1010.2
20260503212726 22 325 12.9 19.3 0.00 0.00 0.00 53 1010.2
20260503212226 23 331 4.8 19.3 0.00 0.00 0.00 52 1010.2
20260503211726 23 342 4.8 22.5 0.00 0.00 0.00 51 1010.2
20260503211225 23 296 9.7 35.4 0.00 0.00 0.00 51 1010.2
20260503210725 23 4 16.1 35.4 0.00 0.00 0.00 53 1010.3
20260503210226 23 299 8.0 35.4 0.00 0.00 0.00 53 1010.2
20260503205725 23 299 8.0 35.4 0.00 0.00 0.00 51 1010.3
20260503205225 23 296 12.9 16.1 0.00 0.00 0.00 51 1010.3
20260503204725 25 294 8.0 16.1 0.00 0.00 0.00 49 1010.3
20260503203724 27 290 8.0 16.1 0.00 0.00 0.00 44 1010.3